Location: Bush Observatory
(40.2653°N, 94.3194°W)
Time: 14:23:10
(UTC-05:00)

Vanguard 1 - Visible Passes

Search period start: 28 June 2017 00:00
Search period end: 08 July 2017 00:00
Orbit: 654 x 3830 km, 34.2° (Epoch: 27 June)

Date Brightness Start Highest point End Pass type
(mag) Time Alt. Az. Time Alt. Az. Time Alt. Az.
28 Jun 13.7 04:36:24 10° S 04:46:49 16° SE 04:55:08 10° ESE visible
29 Jun 13.5 04:54:13 10° S 05:08:10 23° SSE 05:18:22 10° ESE visible
30 Jun 13.3 05:13:14 10° SSW 05:29:29 29° SSE 05:40:38 10° E visible
01 Jul 13.9 03:18:06 10° SSE 03:26:59 14° SE 03:34:45 10° ESE visible
02 Jul 13.7 03:34:32 10° S 03:48:14 20° SE 03:59:19 10° ESE visible
03 Jul 13.5 03:53:53 11° S 04:09:29 27° SE 04:22:12 10° E visible
04 Jul 14.0 02:05:20 10° SE 02:06:54 10° SE 02:08:27 10° SE visible
04 Jul 13.3 04:13:29 12° SSW 04:30:44 34° SSE 04:44:20 10° E visible
05 Jul 13.8 02:20:20 13° SSE 02:28:00 16° SE 02:38:25 10° ESE visible
05 Jul 13.1 04:33:01 12° SSW 04:52:02 41° SSE 05:06:04 10° E visible
06 Jul 13.6 02:39:50 17° SSE 02:49:05 23° SE 03:02:28 10° E visible
06 Jul 13.0 04:52:31 10° SW 05:13:21 48° SSE 05:27:33 10° E visible
07 Jul 13.5 02:59:15 21° S 03:10:11 30° SE 03:25:14 10° E visible
07 Jul 12.8 05:13:01 10° SW 05:34:43 55° SSE 05:48:52 10° E visible
